Regional Weather Roundup
Issued by NWS

Home | Current Version | Previous Version | Graphics & Text | Print | Product List | Glossary On
Versions: 1 2 3 4 5 6 7 8 9 10 11 12 13 14 15 16 17 18 19 20 21 22 23 24 25 26 27 28 29 30 31 32 33 34 35 36 37 38 39 40 41 42 43 44 45 46 47 48 49 50
000
ASUS43 KMKX 171159
RWRWI

WISCONSIN REGIONAL WEATHER ROUNDUP
NATIONAL WEATHER SERVICE MILWAUKEE/SULLIVAN WI
600 AM CST SUN DEC 17 2017

NOTE: "FAIR" INDICATES FEW OR NO CLOUDS BELOW 12,000 FEET WITH NO
SIGNIFICANT WEATHER AND/OR OBSTRUCTIONS TO VISIBILITY.

WIZ001-002-006>008-014>016-023>028-171300-
NORTHWEST WISCONSIN

CITY           SKY/WX    TMP DP  RH WIND       PRES   REMARKS
SUPERIOR ARPT  CLOUDY    21  17  82 CALM      30.12F
6HR MIN TEMP:  21; 6HR MAX TEMP:  22;

ASHLAND        CLOUDY    21  17  84 S3        30.13F
6HR MIN TEMP:  21; 6HR MAX TEMP:  22;

HAYWARD        CLOUDY    22  20  92 CALM      30.09F FOG
6HR MIN TEMP:  21; 6HR MAX TEMP:  22;

SIREN          CLOUDY    18  16  93 CALM      30.10F
CUMBERLAND     CLOUDY    23  21  93 E3        30.08F FOG
RICE LAKE      CLOUDY    24  22  95 CALM      30.12S FOG
CHETEK         CLOUDY    23  22  93 E5        30.10S WCI  17
LADYSMITH      CLOUDY    24  22  91 E5        30.12S WCI  19
EAU CLAIRE     NOT AVBL
MENOMONIE      CLOUDY    26  24  91 NE3       30.10S
NEW RICHMOND   CLOUDY    23  22  96 E6        30.10R FOG     WCI  16
OSCEOLA        CLOUDY    22  22 100 CALM      30.13S
$$

WIZ003>005-009-010-017-018-171300-
NORTH CENTRAL WISCONSIN

CITY           SKY/WX    TMP DP  RH WIND       PRES   REMARKS
MANITOWISH WTR CLOUDY    20  20 100 SE3       30.09S FOG
ARBOR VITAE    CLOUDY    22  20  93 SE5       30.09S WCI  15
WOODRUFF       CLOUDY    22  20  93 SE5       30.09S WCI  15
RHINELANDER    CLOUDY    20  19  96 SE7       30.11S FOG     WCI  11
6HR MIN TEMP:  20; 6HR MAX TEMP:  21;

EAGLE RIVER    CLOUDY    18  18  99 SE3       30.10S FOG
6HR MIN TEMP:  18; 6HR MAX TEMP:  19;

LAND O LAKES   CLOUDY    19  17  95 S5        30.12R WCI  12
PHILLIPS       CLOUDY    21  21 100 SE3       30.10R
6HR MIN TEMP:  19; 6HR MAX TEMP:  21;

TOMAHAWK       CLOUDY    21  20  95 CALM      30.12R
MEDFORD        CLOUDY    22  20  92 E7        30.09R WCI  13
MERRILL        CLOUDY    23  22  95 SE5       30.12F WCI  17
6HR MIN TEMP:  21; 6HR MAX TEMP:  23;

$$

WIZ029-030-035-036-043>047-171300-
CENTRAL WISCONSIN

CITY           SKY/WX    TMP DP  RH WIND       PRES   REMARKS
WAUSAU         CLOUDY    22  20  92 E6        30.10F WCI  14
6HR MIN TEMP:  21; 6HR MAX TEMP:  22;

MOSINEE        CLOUDY    21  21 100 E7        30.12F WCI  13
MARSHFIELD     CLOUDY    23  21  92 E8        30.08F WCI  14
6HR MIN TEMP:  23; 6HR MAX TEMP:  23;

STEVENS POINT  CLOUDY    22  21  97 E6        30.13S WCI  14
WAUPACA        CLOUDY    27  22  84 NE6       30.15R WCI  20
WAUTOMA        CLOUDY    25  22  88 NE7       30.13S WCI  17
6HR MIN TEMP:  24; 6HR MAX TEMP:  25;

WISC RAPIDS    CLOUDY    24  20  84 E5        30.12F WCI  18
6HR MIN TEMP:  24; 6HR MAX TEMP:  24;

CAMP DOUGLAS   CLOUDY   N/A N/A N/A E5        30.10F
$$

WIZ011>013-019>022-031-037>040-048>050-171300-
NORTHEAST WISCONSIN

CITY           SKY/WX    TMP DP  RH WIND       PRES   REMARKS
ANTIGO         CLOUDY    20  19  98 E6        30.12R WCI  12
SHAWANO        CLOUDY    23  20  87 NE7       30.16S WCI  14
6HR MIN TEMP:  23; 6HR MAX TEMP:  24;

OCONTO         CLOUDY    21  18  88 N5        30.19R WCI  15
STURGEON BAY   CLOUDY    28  24  85 E6        30.18S WCI  22
6HR MIN TEMP:  27; 6HR MAX TEMP:  28;

GREEN BAY      CLOUDY    29  24  82 NE9       30.16R WCI  20
6HR MIN TEMP:  26; 6HR MAX TEMP:  29;

MANITOWOC      CLOUDY    30  27  88 E7        30.16R WCI  23
6HR MIN TEMP:  29; 6HR MAX TEMP:  31;

APPLETON       CLOUDY    27  21  80 NE6       30.12S WCI  20
CLINTONVILLE   CLOUDY    21  19  93 NE8       30.16R WCI  12
OSHKOSH        CLOUDY    28  25  88 NE7       30.12S WCI  21
6HR MIN TEMP:  27; 6HR MAX TEMP:  29;

$$

WIZ032>034-041-042-053>061-171300-
SOUTHWEST WISCONSIN

CITY           SKY/WX    TMP DP  RH WIND       PRES   REMARKS
LA CROSSE      CLOUDY    30  26  85 E5        30.09S WCI  25
6HR MIN TEMP:  29; 6HR MAX TEMP:  30;

SPARTA         CLOUDY    27  25  93 E7        30.10S WCI  19
VIROQUA        CLOUDY    27  27 100 CALM      30.05F
6HR MIN TEMP:  26; 6HR MAX TEMP:  28;

BOSCOBEL       CLOUDY    32  28  85 E5        30.09R WCI  27
6HR MIN TEMP:  32; 6HR MAX TEMP:  32;

PRAIRIE DU CHI CLOUDY    31  27  84 E8        30.07R WCI  24
PLATTEVILLE    CLOUDY    32  32 100 E10       30.06R WCI  24
$$

WIZ056-057-062-063-064-067-068-171300-
SOUTH CENTRAL WISCONSIN

CITY           SKY/WX    TMP DP  RH WIND       PRES   REMARKS
REEDSBURG      CLOUDY    27  27 100 E6        30.09S FOG     WCI  20
BARABOO/DELLS  CLOUDY    27  24  91 NE7       30.09S WCI  19
LONE ROCK      NOT AVBL
MINERAL POINT  CLOUDY    32  32 100 E9        30.04S FOG     WCI  24
MADISON        CLOUDY    32  29  88 E8        30.09F WCI  25
6HR MIN TEMP:  30; 6HR MAX TEMP:  32;

MIDDLETON      CLOUDY    33  31  93 E7        30.08S WCI  27
WATERTOWN      CLOUDY    31  31  99 E9        30.10S WCI  23
MONROE         CLOUDY    32  32 100 E9        30.06R FOG     WCI  24
JANESVILLE     CLOUDY    34  34 100 E13       30.08S FOG     WCI  25
$$

WIZ051-052-058>065-066-070>072-171300-
SOUTHEAST WISCONSIN

CITY           SKY/WX    TMP DP  RH WIND       PRES   REMARKS
MILWAUKEE      CLOUDY    34  31  88 E10       30.11S WCI  26
6HR MIN TEMP:  34; 6HR MAX TEMP:  35;

WAUKESHA       CLOUDY    30  28  93 NE9       30.10F WCI  22
MILWAUKEE/TIMM CLOUDY    32  28  86 E6        30.12R WCI  26
RACINE         CLOUDY    34  31  88 E8        30.11F FOG     WCI  27
6HR MIN TEMP:  33; 6HR MAX TEMP:  35;

BURLINGTON     CLOUDY    50  50 100 E8        30.08F
KENOSHA        CLOUDY    35  31  85 E9        30.09F FOG     WCI  28
6HR MIN TEMP:  33; 6HR MAX TEMP:  36;

FOND DU LAC    CLOUDY    31  26  82 E7        30.12F WCI  24
6HR MIN TEMP:  29; 6HR MAX TEMP:  31;

SHEBOYGAN      CLOUDY    30  28  92 E8        30.13S WCI  22
6HR MIN TEMP:  30; 6HR MAX TEMP:  31;

WEST BEND      CLOUDY    30  30 100 E9        30.11S WCI  22
JUNEAU         CLOUDY    30  28  90 E6        30.11S WCI  24
$$

LSZ147-162-171300-
LAKE SUPERIOR

STATION/POSITION TIME  TEMP    WIND        PRES    WAVE
                       AIR SEA DIR/SP/G            HT/PER
                 (UTC) (F)     (DEG/KT/KT) (MB)    (FT/S)
DEVILS ISLAND    1100   26     210/  8/ 10 1021.2R
SAXON HARBOR     1040   24                 1020.3S
$$

LMZ867-665-643>646-171300-
LAKE MICHIGAN

STATION/POSITION TIME  TEMP    WIND        PRES    WAVE
                       AIR SEA DIR/SP/G            HT/PER
                 (UTC) (F)     (DEG/KT/KT) (MB)    (FT/S)
NORTHPORT PIER   1140   29     100/ 14/ 17 1022.4R
KEWAUNEE LAKESHO 1130   31     110/  7/ 10 1020.4F
SHEBOYGAN LAKESH 1100   31     100/ 11/ 12 1021.3R
PORT WASHINGTON  1140   33     100/  9/ 15 1021.3S
MILWAUKEE LAKESH 1130   34      80/  9/ 10   N/A
KENOSHA   LAKESH 1100   35      90/  8/ 12 1019.3
$$

TC  - TEMPERATURE IN CELSIUS
VSB - VISIBILITY IN STATUTE MILES
WCI - WIND CHILL INDEX
HX  - HEAT INDEX




USA.gov is the U.S. government's official web portal to all federal, state and local government web resources and services.